Regional Weather Roundup
Issued by NWS Green Bay, WI

Home | Current Version | Previous Version | Text Only | Print | Product List | Glossary On
Versions: 1 2 3 4 5 6 7 8 9 10 11 12 13 14 15 16 17 18 19 20 21 22 23 24 25 26 27 28 29 30 31 32 33 34 35 36 37 38 39 40 41 42 43 44 45 46 47 48 49 50
000
ASUS43 KGRB 262211
RWRGRB

NORTH-CENTRAL AND NORTHEAST WISCONSIN REGIONAL WEATHER ROUNDUP
NATIONAL WEATHER SERVICE GREEN BAY WI
500 PM CDT THU MAY 26 2016

WIZ005-009-010>012-018-019-262300-
NORTH CENTRAL WISCONSIN

CITY           SKY/WX    TMP DP  RH WIND       PRES   REMARKS
IRONWOOD       SUNNY     72  64  78 NW5       29.76F
MANITOWISH WTR NOT AVBL
ARBOR VITAE    SUNNY     74  62  66 S6        29.82S
EAGLE RIVER      N/A     73  55  53 W8        29.82F
LAND O LAKES   SUNNY     73  56  55 W6        29.83F
RHINELANDER    PTSUNNY   73  59  61 SW5       29.83F
PHILLIPS       MOSUNNY   76  59  56 SW10      29.81S
ANTIGO         MOSUNNY   73  61  65 W9        29.84F
TOMAHAWK       SUNNY     74  57  55 W5        29.82F
MERRILL        MOSUNNY   77  60  56 W12G17    29.83S
$$

WIZ013-073-262300-
NORTHEAST WISCONSIN

CITY           SKY/WX    TMP DP  RH WIND       PRES   REMARKS
IRON MOUNTAIN  MOSUNNY   71  60  68 VRB5      29.81F
MARINETTE      PTSUNNY   72  64  76 N7        29.82S
OCONTO         PTSUNNY   80  61  52 W13G18    29.80S
$$

WIZ017-030-035>037-045-262300-
CENTRAL WISCONSIN

CITY           SKY/WX    TMP DP  RH WIND       PRES   REMARKS
MEDFORD        MOSUNNY   74  59  58 SW12      29.83F
WAUSAU         MOSUNNY   79  57  46 W9        29.81F
MOSINEE        MOSUNNY   75  55  50 W13       29.84F
MARSHFIELD     MOSUNNY   77  58  51 W7        29.81F
WISC RAPIDS    PTSUNNY   81  55  40 W7        29.81F
STEVENS POINT  MOSUNNY   78  55  45 W10G17    29.83F
WAUPACA        SUNNY     82  54  37 W12       29.81F
SHAWANO        MOSUNNY   80  56  43 W12G18    29.82S
CLINTONVILLE   SUNNY     81  50  34 W10G20    29.81F
WAUTOMA        SUNNY     82  57  42 W16       29.81F
$$

WIZ038-039-048-051-262300-
FOX VALLEY

CITY           SKY/WX    TMP DP  RH WIND       PRES   REMARKS
NWS GREEN BAY  SUNNY     81  60  48 W15G23    29.81F
APPLETON       MOSUNNY   79  55  44 W14       29.81F
OSHKOSH        SUNNY     81  58  45 W8        29.81F
FOND DU LAC    SUNNY     81  58  45 W8        29.82F
$$

WIZ022-050-052-262300-
EAST CENTRAL WISCONSIN

CITY           SKY/WX    TMP DP  RH WIND       PRES   REMARKS
EPHRAIM        MOCLDY    67  61  83 N12       29.82S
STURGEON BAY   NOT AVBL
MANITOWOC      MOSUNNY   80  59  48 W16G23    29.82S
SHEBOYGAN      CLOUDY    82  57  42 W10       29.82F
$$

LMZ563-521-522-541>543-262300-
LAKESHORE

STATION/POSITION TIME  TEMP    WIND        PRES    VSBY  WAVE
                       AIR SEA DIR/SP/G                  HT/PER
                 (UTC) (F)     (DEG/KT/KT) (MB)    (MI)  (FT/S)
SHEBOYGAN LKSHOR 2200   70     160/ 10/ 14 1009.8F
KEWAUNEE LKSHORE 2100          260/ 13/ 20 1009.1R
ALGOMA MARINA    2117          300/ 11/ 19   N/A
NORTHPORT PIER   2120   61     300/  7/ 19 1010.2R
N MID LAKE BUOY  2150   49 45  220/ 14/ 16 1009.5R         2/ 3
SISTER BAY LKSHO 2119   64        CALM       N/A
CHAMBERS ISLAND  2100   62      CALM  /  8 1009.8R
MENOMINEE LKSHOR 2100   62      50/  9/ 10 1008.7R
$$




USA.gov is the U.S. government's official web portal to all federal, state and local government web resources and services.